Weather History for Palma de Mallorca, Spain

Change the Weather History Date:

Monday, April 29, 2013

  Actual Average Record
Temperature  
Mean Temperature 58 °F -  
Max Temperature 61 °F 73 °F 77 °F (2005)
Min Temperature 55 °F 53 °F 44 °F (2001)
Degree Days  
Heating Degree Days 6    
Growing Degree Days 8 (Base 50)    
Moisture  
Dew Point 56 °F    
Average Humidity 92    
Maximum Humidity 100    
Minimum Humidity 74    
Precipitation  
Precipitation 0.01 in 0.04 in - ()
Sea Level Pressure  
Sea Level Pressure 29.76 in    
Wind  
Wind Speed 7 mph ()    
Max Wind Speed 20 mph    
Max Gust Speed -    
Visibility 4.8 miles    
Events Rain    
Averages and records for this station are not official NWS values.
T = Trace of Precipitation, MM = Missing Value Source: Averaged Metar Reports

Daily Weather History Graph

Daily Weather History Graph

Search for Another Location

Airport:

Trip Planner

Search our weather history database for the weather conditions in past years. The results will help you decide how hot, cold, wet, or windy it might be!

Date:

Astronomy

Apr. 29, 2013 Rise Set
Actual Time 6:52 AM CEST 8:40 PM CEST
Civil Twilight 6:23 AM CEST 9:09 PM CEST
Nautical Twilight 5:48 AM CEST 9:45 PM CEST
Astronomical Twilight 5:10 AM CEST 10:22 PM CEST
Moon No Moon Rise 9:56 AM CEST (4/29)
Length of Visible Light 14h 46m
Length of Day
13h 48m
Waning Gibbous, 82% of the Moon is Illuminated
Apr 29
Waning Gibbous
May 2
Last Quarter
May 10
New
May 18
First Quarter
May 25
Full

Hourly Weather History & Observations

Time (CEST) Temp. Dew Point Humidity Pressure Visibility Wind Dir Wind Speed Gust Speed Precip Events Conditions
12:00 AM 57.2 °F 55.4 °F 94% 29.77 in 4.3 mi East 4.6 mph - N/A Rain Light Rain
12:30 AM 57.2 °F 55.4 °F 94% 29.80 in 4.3 mi ENE 2.3 mph - N/A Rain Light Rain
1:00 AM 57.2 °F 55.4 °F 94% 29.80 in 4.3 mi Variable 2.3 mph - N/A Rain Rain
1:30 AM 57.2 °F 55.4 °F 94% 29.80 in 3.1 mi NE 1.2 mph - N/A Rain Rain
2:00 AM 57 °F 54 °F 88% 29.83 in 3 mi ESE 2.3 mph - - Rain Rain
2:00 AM 57.2 °F 55.4 °F 94% 29.80 in 3.1 mi Variable 1.2 mph - N/A Rain Rain
2:30 AM 57.2 °F 55.4 °F 94% 29.83 in 2.5 mi Variable 2.3 mph - N/A Rain Rain
3:00 AM 57.2 °F 55.4 °F 94% 29.77 in 2.5 mi NE 3.5 mph - N/A Rain Rain
3:30 AM 57.2 °F 55.4 °F 94% 29.80 in 2.5 mi Calm Calm - N/A Rain Light Rain
4:00 AM 57.2 °F 55.4 °F 94% 29.80 in 2.5 mi Calm Calm - N/A Rain Light Rain
4:30 AM 57.2 °F 55.4 °F 94% 29.80 in 2.5 mi East 3.5 mph - N/A Rain Light Rain
5:00 AM 57.2 °F 55.4 °F 94% 29.80 in 2.5 mi East 4.6 mph - N/A Rain Rain
5:30 AM 57.2 °F 55.4 °F 94% 29.77 in 2.5 mi NE 8.1 mph - N/A Rain Rain
6:00 AM 57.2 °F 55.4 °F 94% 29.77 in 2.5 mi ENE 6.9 mph - N/A Rain Light Rain
6:30 AM 57.2 °F 55.4 °F 94% 29.74 in 3.7 mi NE 11.5 mph - N/A   Mostly Cloudy
7:00 AM 57.2 °F 55.4 °F 94% 29.77 in 4.3 mi ENE 9.2 mph - N/A   Scattered Clouds
7:30 AM 57.2 °F 55.4 °F 94% 29.77 in 5.6 mi NE 11.5 mph - N/A   Mostly Cloudy
8:00 AM 56 °F 53 °F 87% 29.78 in 6 mi ENE 9.2 mph - -   Mist
8:00 AM 57.2 °F 55.4 °F 94% 29.77 in 5.6 mi ENE 12.7 mph - N/A   Mostly Cloudy
8:30 AM 57.2 °F 55.4 °F 94% 29.77 in 5.6 mi ENE 11.5 mph - N/A   Scattered Clouds
9:00 AM 57.2 °F 55.4 °F 94% 29.77 in 5.6 mi NE 13.8 mph - N/A   Mostly Cloudy
9:30 AM 57.2 °F 55.4 °F 94% 29.77 in 5.6 mi NE 15.0 mph - N/A   Mostly Cloudy
10:00 AM 57.2 °F 55.4 °F 94% 29.77 in 5.0 mi NE 15.0 mph - N/A   Scattered Clouds
10:30 AM 57.2 °F 53.6 °F 88% 29.77 in 5.0 mi NE 10.4 mph - N/A   Scattered Clouds
11:00 AM 57.2 °F 55.4 °F 94% 29.74 in 5.0 mi ENE 16.1 mph - N/A   Scattered Clouds
11:30 AM 57.2 °F 55.4 °F 94% 29.77 in 5.6 mi NE 13.8 mph - N/A   Mostly Cloudy
12:00 PM 57.2 °F 55.4 °F 94% 29.74 in 5.6 mi NE 11.5 mph - N/A   Mostly Cloudy
12:30 PM 57.2 °F 55.4 °F 94% 29.74 in 5.6 mi NE 13.8 mph - N/A   Mostly Cloudy
1:00 PM 59.0 °F 55.4 °F 88% 29.74 in 5.6 mi NE 13.8 mph - N/A   Mostly Cloudy
1:30 PM 59.0 °F 55.4 °F 88% 29.71 in 5.6 mi NE 15.0 mph - N/A   Mostly Cloudy
2:00 PM 60 °F 54 °F 74% 29.73 in 6 mi North 2.3 mph - -   Mist
2:00 PM 60.8 °F 55.4 °F 82% 29.71 in 5.6 mi ENE 10.4 mph - N/A   Mostly Cloudy
2:30 PM 59.0 °F 55.4 °F 88% 29.71 in 5.6 mi North 3.5 mph - N/A   Mostly Cloudy
2:45 PM 59.0 °F 57.2 °F 94% 29.71 in 3.1 mi WSW 10.4 mph - N/A   Mostly Cloudy
3:00 PM 59.0 °F 57.2 °F 94% 29.71 in 3.1 mi WSW 10.4 mph - N/A   Mostly Cloudy
3:30 PM 59.0 °F 57.2 °F 94% 29.71 in 2.5 mi WSW 11.5 mph - N/A Rain Light Rain
3:44 PM 57.2 °F 57.2 °F 100% 29.71 in 1.6 mi SW 11.5 mph - N/A Rain Light Rain
4:00 PM 57.2 °F 57.2 °F 100% 29.71 in 1.6 mi WSW 12.7 mph - N/A Rain Light Rain
4:30 PM 59.0 °F 57.2 °F 94% 29.71 in 2.5 mi WSW 9.2 mph - N/A   Mostly Cloudy
5:00 PM 59.0 °F 57.2 °F 94% 29.71 in 5.6 mi West 5.8 mph - N/A   Mostly Cloudy
5:30 PM 60.8 °F 57.2 °F 88% 29.71 in 5.6 mi SW 6.9 mph - N/A   Mostly Cloudy
6:00 PM 60.8 °F 57.2 °F 88% 29.71 in 6.2 mi SW 10.4 mph - N/A   Mostly Cloudy
6:30 PM 60.8 °F 57.2 °F 88% 29.71 in 6.2 mi WSW 16.1 mph - N/A   Mostly Cloudy
7:00 PM 59.0 °F 55.4 °F 88% 29.71 in 6.2 mi WSW 18.4 mph - N/A   Mostly Cloudy
7:30 PM 59.0 °F 55.4 °F 88% 29.74 in 6.2 mi WSW 16.1 mph - N/A   Mostly Cloudy
8:00 PM 58 °F 56 °F 90% 29.75 in 16 mi WSW 13.8 mph - -   Partly Cloudy
8:00 PM 59.0 °F 55.4 °F 88% 29.74 in 6.2 mi West 16.1 mph - N/A   Mostly Cloudy
8:30 PM 59.0 °F 55.4 °F 88% 29.77 in 6.2 mi WSW 16.1 mph - N/A   Mostly Cloudy
9:00 PM 59.0 °F 55.4 °F 88% 29.77 in 6.2 mi West 15.0 mph - N/A   Mostly Cloudy
9:30 PM 59.0 °F 55.4 °F 88% 29.77 in 6.2 mi West 6.9 mph - N/A   Mostly Cloudy
10:00 PM 59.0 °F 53.6 °F 82% 29.80 in 6.2 mi West 4.6 mph - N/A   Mostly Cloudy
10:30 PM 57.2 °F 55.4 °F 94% 29.83 in 6.2 mi WSW 16.1 mph - N/A   Mostly Cloudy
11:00 PM 57.2 °F 55.4 °F 94% 29.83 in 6.2 mi WSW 19.6 mph - N/A   Mostly Cloudy
11:30 PM 55.4 °F 51.8 °F 88% 29.86 in 6.2 mi West 18.4 mph - N/A   Mostly Cloudy